Weather History for K2WX - October, 2012

Change the Weather History Date:

Saturday, October 6, 2012

  Actual Average Record
Temperature  
Mean Temperature 32 °F 49 °F  
Max Temperature 46 °F 62 °F 82 °F (2004)
Min Temperature 17 °F 36 °F 17 °F (2012)
Degree Days  
Heating Degree Days 33 16  
Month to date heating degree days 129 91  
Since 1 July heating degree days 288 382  
Cooling Degree Days 0 0  
Month to date cooling degree days 0 0  
Year to date cooling degree days 853 512  
Moisture  
Dew Point 16 °F    
Average Humidity 60    
Maximum Humidity 92    
Minimum Humidity 27    
Precipitation  
Precipitation 0.00 in 0.01 in 0.34 in (2011)
Month to date precipitation 0.06 0.04  
Year to date precipitation 7.65 13.26  
Sea Level Pressure  
Sea Level Pressure 30.34 in    
Wind  
Wind Speed 9 mph (WNW)    
Max Wind Speed 16 mph    
Max Gust Speed 20 mph    
T = Trace of Precipitation, MM = Missing Value Source: NWS Daily Summary

Daily Weather History Graph

Daily Weather History Graph

Search for Another Location

Airport or City:

Trip Planner

Search our weather history database for the weather conditions in past years. The results will help you decide how hot, cold, wet, or windy it might be!

Date:

Astronomy

Oct. 06, 2012 Rise Set
Actual Time 6:59 AM MDT 6:23 PM MDT
Civil Twilight 6:29 AM MDT 6:53 PM MDT
Nautical Twilight 5:55 AM MDT 7:27 PM MDT
Astronomical Twilight 5:20 AM MDT 8:02 PM MDT
Moon 10:28 PM MDT (10/6) 1:09 PM MDT (10/6)
Length of Visible Light 12h 23m
Length of Day
11h 24m
Waning Gibbous, 65% of the Moon is Illuminated
Oct 6
Waning Gibbous
Oct 8
Last Quarter
Oct 15
New
Oct 21
First Quarter
Oct 29
Full

Hourly Weather History & Observations

Time (MDT) Temp. Windchill Dew Point Humidity Pressure Visibility Wind Dir Wind Speed Gust Speed Precip Events Conditions
12:56 AM 24.1 °F 12.5 °F 17.1 °F 75% 30.41 in - North 12.7 mph - N/A   Unknown
1:56 AM 25.0 °F 14.2 °F 18.0 °F 75% 30.41 in - North 11.5 mph - N/A   Unknown
2:56 AM 23.0 °F 14.7 °F 17.1 °F 78% 30.41 in - NNW 6.9 mph - N/A   Unknown
3:56 AM 18.0 °F 9.8 °F 15.1 °F 88% 30.43 in - West 5.8 mph - N/A   Unknown
4:56 AM 17.1 °F 8.7 °F 14.0 °F 88% 30.43 in - West 5.8 mph - N/A   Unknown
5:56 AM 17.1 °F 7.6 °F 14.0 °F 88% 30.43 in - West 6.9 mph - N/A   Unknown
6:56 AM 19.0 °F 12.3 °F 15.1 °F 85% 30.44 in - WNW 4.6 mph - N/A   Unknown
7:56 AM 19.0 °F 11.1 °F 14.0 °F 81% 30.45 in - West 5.8 mph - N/A   Unknown
8:56 AM 27.0 °F 23.0 °F 21.9 °F 81% 30.43 in - West 3.5 mph - N/A   Unknown
9:56 AM 35.1 °F 27.9 °F 21.0 °F 57% 30.42 in - NW 9.2 mph - N/A   Unknown
10:56 AM 37.0 °F 29.3 °F 17.1 °F 44% 30.41 in - NNW 11.5 mph - N/A   Unknown
11:56 AM 39.0 °F 32.3 °F 14.0 °F 36% 30.39 in - West 10.4 mph - N/A   Unknown
12:56 PM 42.1 °F 36.1 °F 12.0 °F 29% 30.36 in - WNW 10.4 mph - N/A   Unknown
1:56 PM 43.0 °F 37.2 °F 12.9 °F 30% 30.33 in - West 10.4 mph - N/A   Unknown
2:56 PM 45.0 °F 39.3 °F 12.0 °F 26% 30.30 in - NW 11.5 mph 17.3 mph N/A   Unknown
3:56 PM 46.0 °F 39.9 °F 15.1 °F 29% 30.29 in - West 13.8 mph - N/A   Unknown
4:56 PM 45.0 °F 38.9 °F 12.9 °F 27% 30.27 in - West 12.7 mph - N/A   Unknown
5:56 PM 42.1 °F 36.6 °F 16.0 °F 35% 30.27 in - West 9.2 mph - N/A   Unknown
6:56 PM 35.1 °F 27.9 °F 17.1 °F 48% 30.27 in - WSW 9.2 mph - N/A   Unknown
7:56 PM 32.0 °F 25.6 °F 17.1 °F 54% 30.27 in - West 6.9 mph - N/A   Unknown
8:56 PM 28.9 °F 21.9 °F 17.1 °F 61% 30.24 in - WSW 6.9 mph - N/A   Unknown
9:56 PM 27.0 °F 19.5 °F 16.0 °F 63% 30.21 in - WSW 6.9 mph - N/A   Unknown
10:56 PM 27.0 °F 18.7 °F 16.0 °F 63% 30.18 in - WSW 8.1 mph - N/A   Unknown
11:56 PM 25.0 °F 15.5 °F 16.0 °F 69% 30.16 in - West 9.2 mph - N/A   Unknown